This demonstration page uses our WeatherBlox Daily Observations layout. Learn more.

41.55636, -103.73856

Hourly Observations for August 28, 2016

Temp ( °F °C ) Dew Point ( °F °C ) Humidity (%) Winds ( mph kmh ) Pressure ( in mb ) Visibility ( mi km ) Precip ( " mm )
12:53 am 00:53 Clear 62 16.7 54 12.2 75 75 E 8 13 29.91 1013 10 16.0934 0 0
1:53 am 01:53 Clear 63 17.2 52 11.1 68 68 ENE 10 17 29.91 1013 10 16.0934 0 0
2:53 am 02:53 Clear 61 16.1 54 12.2 78 78 ENE 5 7 29.91 1013 10 16.0934 0 0
3:53 am 03:53 Clear 58 14.4 54 12.2 87 87 E 9 15 29.93 1013 10 16.0934 0 0
4:53 am 04:53 Clear 57 13.9 53 11.7 87 87 ENE 5 7 29.94 1014 10 16.0934 0 0
5:53 am 05:53 Clear 56 13.3 53 11.7 90 90 ESE 6 9 29.95 1014 10 16.0934 0 0
6:53 am 06:53 Sunny 55 12.8 53 11.7 93 93 Calm 29.97 1015 8 12.87472 0 0
7:53 am 07:53 Sunny 62 16.7 57 13.9 84 84 ESE 3 6 29.98 1015 9 14.48406 0 0
8:53 am 08:53 Sunny 67 19.4 57 13.9 71 71 Calm 29.98 1015 10 16.0934 0 0
9:53 am 09:53 Sunny 75 23.9 57 13.9 54 54 Calm 29.98 1015 10 16.0934 0 0
10:53 am 10:53 Sunny 80 26.7 46 7.8 30 30 VRB 5 7 29.97 1015 10 16.0934 0 0
11:53 am 11:53 Sunny 85 29.4 42 5.6 22 22 WNW 5 7 29.96 1014 10 16.0934 0 0
12:53 pm 12:53 Sunny 87 30.6 42 5.6 21 21 undefined N/A 29.94 1014 10 16.0934 0 0
1:53 pm 13:53 Sunny 86 30 37 2.8 18 18 VRB 3 6 29.93 1014 10 16.0934 0 0
2:53 pm 14:53 Sunny 88 31.1 35 1.7 15 15 Calm 29.92 1013 10 16.0934 0 0
3:53 pm 15:53 Sunny 89 31.7 42 5.6 19 19 SE 10 17 29.92 1013 10 16.0934 0 0
4:53 pm 16:53 Sunny 85 29.4 53 11.7 33 33 SE 10 17 29.93 1014 10 16.0934 0 0
5:53 pm 17:53 Sunny 83 28.3 58 14.4 43 43 SE 9 15 29.93 1014 10 16.0934 0 0
6:53 pm 18:53 Sunny 82 27.8 56 13.3 41 41 SSE 9 15 29.95 1014 10 16.0934 0 0
7:53 pm 19:53 Clear 77 25 51 10.6 40 40 S 5 7 29.96 1014 10 16.0934 0 0
8:53 pm 20:53 Clear 71 21.7 56 13.3 59 59 Calm 29.99 1016 10 16.0934 0 0
9:53 pm 21:53 Clear 65 18.3 55 12.8 70 70 E 5 7 30.02 1017 10 16.0934 0 0
10:53 pm 22:53 Clear 63 17.2 56 13.3 78 78 ENE 7 11 30.02 1017 10 16.0934 0 0
11:53 pm 23:53 Clear 62 16.7 55 12.8 78 78 Calm 30.01 1016 10 16.0934 0 0

Powered by AerisWeather